| time (UTC) | temp C | wind direction | speed KPH | gust KPH | rain 1hr cm | rain 24hr cm | rain mn cm | humidity % | barometer mb |
| 20260508200036 | 18 | 360 | 3.2 | 16.1 | 0.00 | 0.00 | 0.00 | 43 | 1010.5 |
| 20260508194538 | 19 | 360 | 4.8 | 24.1 | 0.00 | 0.00 | 0.00 | 42 | 1010.6 |
| 20260508193038 | 20 | 246 | 3.2 | 22.5 | 0.00 | 0.00 | 0.00 | 45 | 1010.7 |
| 20260508191543 | 19 | 360 | 3.2 | 17.7 | 0.00 | 0.00 | 0.00 | 45 | 1011.0 |
| 20260508190032 | 20 | 360 | 3.2 | 22.5 | 0.00 | 0.00 | 0.00 | 47 | 1011.5 |
| 20260508184533 | 19 | 360 | 4.8 | 24.1 | 0.00 | 0.00 | 0.00 | 46 | 1011.6 |
| 20260508183035 | 18 | 360 | 4.8 | 19.3 | 0.00 | 0.00 | 0.00 | 45 | 1011.8 |
| 20260508181533 | 18 | 257 | 3.2 | 16.1 | 0.00 | 0.00 | 0.00 | 52 | 1012.0 |
| 20260508180036 | 17 | 360 | 3.2 | 24.1 | 0.00 | 0.00 | 0.00 | 48 | 1012.1 |
| 20260508174537 | 18 | 360 | 4.8 | 14.5 | 0.00 | 0.00 | 0.00 | 46 | 1012.4 |
| 20260508173036 | 18 | 360 | 4.8 | 27.4 | 0.00 | 0.00 | 0.00 | 53 | 1012.7 |
| 20260508171534 | 18 | 360 | 4.8 | 20.9 | 0.00 | 0.00 | 0.00 | 50 | 1012.9 |
| 20260508170033 | 18 | 360 | 4.8 | 17.7 | 0.00 | 0.00 | 0.00 | 48 | 1013.1 |
| 20260508164533 | 18 | 360 | 3.2 | 25.7 | 0.00 | 0.00 | 0.00 | 51 | 1013.1 |
| 20260508163036 | 18 | 360 | 3.2 | 20.9 | 0.00 | 0.00 | 0.00 | 52 | 1013.2 |
| 20260508161535 | 17 | 200 | 3.2 | 20.9 | 0.00 | 0.00 | 0.00 | 54 | 1013.5 |
| 20260508160033 | 17 | 360 | 3.2 | 14.5 | 0.00 | 0.00 | 0.00 | 55 | 1013.7 |
| 20260508154537 | 17 | 360 | 4.8 | 24.1 | 0.00 | 0.00 | 0.00 | 52 | 1013.8 |
| 20260508153038 | 16 | 360 | 3.2 | 16.1 | 0.00 | 0.00 | 0.00 | 54 | 1013.9 |
| 20260508151532 | 16 | 360 | 1.6 | 20.9 | 0.00 | 0.00 | 0.00 | 57 | 1014.2 |
| 20260508150051 | 15 | 360 | 1.6 | 12.9 | 0.00 | 0.00 | 0.00 | 60 | 1014.3 |
| 20260508144534 | 14 | 360 | 1.6 | 19.3 | 0.00 | 0.00 | 0.00 | 59 | 1014.6 |
| 20260508143046 | 14 | 360 | 3.2 | 8.0 | 0.00 | 0.00 | 0.00 | 57 | 1014.6 |
| 20260508141533 | 13 | 360 | 1.6 | 22.5 | 0.00 | 0.00 | 0.00 | 56 | 1014.5 |
| 20260508140036 | 13 | 360 | 4.8 | 19.3 | 0.00 | 0.00 | 0.00 | 56 | 1014.5 |
| 20260508134534 | 13 | 360 | 4.8 | 17.7 | 0.00 | 0.00 | 0.00 | 55 | 1014.6 |
| 20260508133038 | 12 | 360 | 3.2 | 17.7 | 0.00 | 0.00 | 0.00 | 59 | 1014.7 |
| 20260508131534 | 11 | 360 | 3.2 | 16.1 | 0.00 | 0.00 | 0.00 | 62 | 1014.6 |
| 20260508130035 | 10 | 360 | 1.6 | 14.5 | 0.00 | 0.00 | 0.00 | 64 | 1014.5 |
| 20260508124533 | 10 | 360 | 3.2 | 14.5 | 0.00 | 0.00 | 0.00 | 66 | 1014.6 |
| 20260508123037 | 10 | 0 | 1.6 | 14.5 | 0.00 | 0.00 | 0.00 | 66 | 1014.6 |
| 20260508121535 | 10 | 173 | 3.2 | 9.7 | 0.00 | 0.00 | 0.00 | 68 | 1014.5 |
| 20260508120032 | 9 | 360 | 3.2 | 14.5 | 0.00 | 0.00 | 0.00 | 70 | 1014.4 |
| 20260508114535 | 8 | 360 | 1.6 | 8.0 | 0.00 | 0.00 | 0.00 | 71 | 1014.2 |
| 20260508113034 | 8 | 360 | 1.6 | 8.0 | 0.00 | 0.00 | 0.00 | 71 | 1014.2 |
| 20260508111533 | 8 | 360 | 3.2 | 8.0 | 0.00 | 0.00 | 0.00 | 72 | 1014.1 |
| 20260508110031 | 7 | 360 | 1.6 | 8.0 | 0.00 | 0.00 | 0.00 | 72 | 1013.9 |
| 20260508104537 | 7 | 360 | 1.6 | 9.7 | 0.00 | 0.00 | 0.00 | 72 | 1013.8 |
| 20260508103037 | 7 | 205 | 1.6 | 8.0 | 0.00 | 0.00 | 0.00 | 74 | 1013.9 |
| 20260508101542 | 6 | 201 | 0.0 | 4.8 | 0.00 | 0.00 | 0.00 | 75 | 1013.8 |
| 20260508100035 | 6 | 360 | 0.0 | 3.2 | 0.00 | 0.00 | 0.00 | 74 | 1013.9 |
| 20260508094532 | 6 | 0 | 0.0 | 6.4 | 0.00 | 0.00 | 0.00 | 73 | 1013.9 |
| 20260508093038 | 6 | 360 | 0.0 | 3.2 | 0.00 | 0.00 | 0.00 | 73 | 1014.0 |
| 20260508091535 | 6 | 0 | 0.0 | 3.2 | 0.00 | 0.00 | 0.00 | 72 | 1013.9 |
| 20260508090037 | 7 | 0 | 0.0 | 3.2 | 0.00 | 0.00 | 0.00 | 70 | 1014.0 |
| 20260508084532 | 7 | 210 | 0.0 | 3.2 | 0.00 | 0.00 | 0.00 | 69 | 1013.8 |
| 20260508083033 | 7 | 0 | 0.0 | 3.2 | 0.00 | 0.00 | 0.00 | 68 | 1013.7 |
| 20260508081543 | 7 | 0 | 0.0 | 3.2 | 0.00 | 0.00 | 0.00 | 67 | 1013.8 |
| 20260508080054 | 7 | 217 | 0.0 | 3.2 | 0.00 | 0.00 | 0.00 | 66 | 1013.7 |
| 20260508074535 | 8 | 360 | 0.0 | 4.8 | 0.00 | 0.00 | 0.00 | 65 | 1013.8 |
| 20260508073032 | 8 | 360 | 1.6 | 6.4 | 0.00 | 0.00 | 0.00 | 64 | 1013.7 |
| 20260508071536 | 8 | 0 | 1.6 | 6.4 | 0.00 | 0.00 | 0.00 | 64 | 1013.7 |
| 20260508070033 | 8 | 225 | 1.6 | 8.0 | 0.00 | 0.00 | 0.00 | 64 | 1014.0 |
| 20260508064546 | 8 | 218 | 1.6 | 12.9 | 0.00 | 0.00 | 0.00 | 64 | 1014.1 |
| 20260508063035 | 8 | 204 | 1.6 | 8.0 | 0.00 | 0.00 | 0.00 | 64 | 1014.2 |
| 20260508061537 | 8 | 360 | 0.0 | 8.0 | 0.00 | 0.00 | 0.00 | 66 | 1014.3 |
| 20260508060035 | 8 | 0 | 0.0 | 6.4 | 0.00 | 0.00 | 0.00 | 66 | 1014.3 |
| 20260508054542 | 8 | 0 | 1.6 | 6.4 | 0.00 | 0.00 | 0.00 | 66 | 1014.2 |
| 20260508053035 | 8 | 0 | 0.0 | 4.8 | 0.00 | 0.00 | 0.00 | 67 | 1014.3 |
| 20260508051539 | 8 | 208 | 1.6 | 8.0 | 0.00 | 0.00 | 0.00 | 68 | 1014.3 |
| 20260508050043 | 8 | 209 | 1.6 | 8.0 | 0.00 | 0.00 | 0.00 | 68 | 1014.3 |
| 20260508044533 | 8 | 197 | 1.6 | 6.4 | 0.00 | 0.00 | 0.00 | 67 | 1014.3 |
| 20260508043034 | 8 | 360 | 1.6 | 8.0 | 0.00 | 0.00 | 0.00 | 66 | 1014.3 |
| 20260508041532 | 8 | 214 | 1.6 | 4.8 | 0.00 | 0.00 | 0.00 | 68 | 1014.3 |
| 20260508040048 | 8 | 360 | 0.0 | 3.2 | 0.00 | 0.00 | 0.00 | 68 | 1014.5 |
| 20260508034541 | 8 | 0 | 1.6 | 4.8 | 0.00 | 0.00 | 0.00 | 69 | 1014.2 |
| 20260508033033 | 7 | 0 | 1.6 | 8.0 | 0.00 | 0.00 | 0.00 | 70 | 1014.2 |
| 20260508031533 | 7 | 360 | 1.6 | 3.2 | 0.00 | 0.00 | 0.00 | 70 | 1014.2 |
| 20260508030037 | 7 | 0 | 0.0 | 1.6 | 0.00 | 0.00 | 0.00 | 71 | 1014.2 |
| 20260508024535 | 7 | 0 | 0.0 | 1.6 | 0.00 | 0.00 | 0.00 | 71 | 1014.1 |
| 20260508023035 | 7 | 0 | 0.0 | 0.0 | 0.00 | 0.00 | 0.00 | 69 | 1014.2 |
| 20260508021539 | 8 | 0 | 0.0 | 0.0 | 0.00 | 0.00 | 0.00 | 68 | 1014.2 |
| 20260508020034 | 7 | 0 | 0.0 | 0.0 | 0.00 | 0.00 | 0.00 | 69 | 1014.2 |
| 20260508014538 | 7 | 0 | 0.0 | 0.0 | 0.00 | 0.00 | 0.00 | 69 | 1014.2 |
| 20260508013035 | 8 | 0 | 0.0 | 0.0 | 0.00 | 0.00 | 0.00 | 68 | 1014.1 |
| 20260508011537 | 8 | 0 | 0.0 | 0.0 | 0.00 | 0.00 | 0.00 | 66 | 1014.1 |
| 20260508010038 | 9 | 0 | 0.0 | 0.0 | 0.00 | 0.00 | 0.00 | 63 | 1014.0 |
| 20260508004545 | 10 | 0 | 0.0 | 0.0 | 0.00 | 0.00 | 0.00 | 62 | 1014.0 |
| 20260508003036 | 11 | 0 | 0.0 | 0.0 | 0.00 | 0.00 | 0.00 | 57 | 1013.9 |
| 20260508001533 | 12 | 0 | 0.0 | 0.0 | 0.00 | 0.00 | 0.00 | 52 | 1013.8 |
| 20260508000136 | 12 | 0 | 0.0 | 3.2 | 0.00 | 0.00 | 0.00 | 46 | 1013.7 |
| 20260507234545 | 13 | 360 | 0.0 | 4.8 | 0.00 | 0.00 | 0.00 | 45 | 1013.7 |
| 20260507233039 | 13 | 271 | 1.6 | 3.2 | 0.00 | 0.00 | 0.00 | 43 | 1013.4 |
| 20260507231533 | 14 | 272 | 0.0 | 8.0 | 0.00 | 0.00 | 0.00 | 42 | 1013.4 |
| 20260507230032 | 14 | 0 | 0.0 | 12.9 | 0.00 | 0.00 | 0.00 | 40 | 1013.4 |
| 20260507224535 | 15 | 0 | 0.0 | 6.4 | 0.00 | 0.00 | 0.00 | 42 | 1013.5 |
| 20260507223043 | 15 | 310 | 1.6 | 14.5 | 0.00 | 0.00 | 0.00 | 42 | 1013.7 |
| 20260507221536 | 15 | 360 | 1.6 | 12.9 | 0.00 | 0.00 | 0.00 | 42 | 1013.9 |
| 20260507220038 | 14 | 243 | 1.6 | 12.9 | 0.00 | 0.00 | 0.00 | 46 | 1013.9 |
| 20260507214532 | 15 | 5 | 1.6 | 16.1 | 0.00 | 0.00 | 0.00 | 42 | 1013.9 |
| 20260507213033 | 14 | 322 | 1.6 | 9.7 | 0.00 | 0.00 | 0.00 | 43 | 1013.9 |
| 20260507211540 | 15 | 325 | 1.6 | 12.9 | 0.00 | 0.00 | 0.00 | 45 | 1013.8 |
| 20260507210045 | 14 | 337 | 1.6 | 14.5 | 0.00 | 0.00 | 0.00 | 42 | 1013.8 |
| 20260507204542 | 15 | 360 | 1.6 | 14.5 | 0.00 | 0.00 | 0.00 | 44 | 1013.7 |
| 20260507203038 | 15 | 0 | 1.6 | 9.7 | 0.00 | 0.00 | 0.00 | 47 | 1013.7 |
| 20260507201533 | 15 | 343 | 1.6 | 17.7 | 0.00 | 0.00 | 0.00 | 43 | 1013.7 |